Date String (YYYY-MM-DD hh:mm:ss) UTC,Instrument flags,absolute air pressure of the measurement (hPa),sample flow rate (lpm),inlet stack bypass flow (lpm),air temperature of the measurement (°C),ambient temperature measured by the external sensor (°C),aerosol sample conditioner tube jacket temperature (°C),OPC LED temperature (°C),internal box temperature (°C),relative humidity of the measurement (%),span deviation,mass concentration of particles derived from Lorenz-Mie calculation of OPC scattering (μg/m³),mass concentration of particles derived from Lorenz-Mie calculation of OPC scattering (μg/m³),mass concentration of particles derived from Lorenz-Mie calculation of OPC scattering (μg/m³)
DateTimeUTC,F1_M11,P_M11,Q1_M11,Q2_M11,T1_M11,T2_M11,T3_M11,T4_M11,T5_M11,U1_M11,ZSPAN_M11,X0_M11,X2_M11,X1_M11
2023-09-27 22:00:00,SystemResetWarning,0828.7,5.01,000.00,028.0,026.6,000.0,036.4,029.9,14.7,0000.0,0011.08,0005.44,0004.83
2023-09-27 22:01:00,SystemResetWarning,0828.7,4.99,000.00,028.1,026.8,000.0,036.4,030.0,14.4,0000.0,0011.34,0005.44,0004.85
2023-09-27 22:02:00,SystemResetWarning,0828.7,4.98,000.00,028.1,025.8,000.0,036.4,029.9,14.6,0000.0,0011.29,0005.44,0004.86
2023-09-27 22:03:00,SystemResetWarning,0828.6,5.01,000.00,028.0,024.5,000.0,036.3,029.7,14.5,0000.0,0011.46,0005.52,0004.90
2023-09-27 22:04:00,SystemResetWarning,0828.6,5.01,000.00,028.0,024.5,000.0,036.3,029.6,14.4,0000.0,0011.29,0005.56,0004.91
2023-09-27 22:05:00,SystemResetWarning,0828.6,4.99,000.00,027.9,024.9,000.0,036.3,029.5,14.5,0000.0,0011.21,0005.57,0004.92
2023-09-27 22:06:00,SystemResetWarning,0828.6,5.00,000.00,027.9,025.3,000.0,036.3,029.5,14.8,0000.0,0011.07,0005.55,0004.92
2023-09-27 22:07:00,SystemResetWarning,0828.6,5.00,000.00,027.9,025.8,000.0,036.3,029.6,14.8,0000.0,0010.93,0005.55,0004.94
2023-09-27 22:08:00,SystemResetWarning,0828.6,5.00,000.00,028.0,026.2,000.0,036.3,029.8,14.6,0000.0,0011.12,0005.52,0004.96
2023-09-27 22:09:00,SystemResetWarning,0828.6,4.99,000.00,028.0,026.6,000.0,036.3,029.9,14.7,0000.0,0011.11,0005.57,0004.98
2023-09-27 22:10:00,SystemResetWarning,0828.5,5.00,000.00,028.1,026.8,000.0,036.4,030.0,14.8,0000.0,0010.49,0005.58,0004.98
2023-09-27 22:11:00,SystemResetWarning,0828.6,4.99,000.00,028.1,026.0,000.0,036.3,029.9,15.0,0000.0,0010.59,0005.64,0005.00
2023-09-27 22:12:00,SystemResetWarning,0828.6,5.00,000.00,028.0,024.6,000.0,036.3,029.7,14.9,0000.1,0010.99,0005.71,0005.03
2023-09-27 22:13:00,SystemResetWarning,0828.6,5.01,000.00,028.0,024.6,000.0,036.3,029.6,14.9,0000.0,0012.11,0005.76,0005.05
2023-09-27 22:14:00,SystemResetWarning,0828.6,5.00,000.00,027.9,024.9,000.0,036.3,029.5,14.9,0000.0,0012.73,0005.75,0005.06
2023-09-27 22:15:00,SystemResetWarning,0828.5,5.00,000.00,027.9,025.3,000.0,036.3,029.6,15.5,0000.0,0012.93,0005.75,0005.08
2023-09-27 22:16:00,SystemResetWarning,0828.6,5.01,000.00,027.9,025.8,000.0,036.3,029.7,15.3,0000.0,0013.48,0005.77,0005.11
2023-09-27 22:17:00,SystemResetWarning,0828.6,5.00,000.00,028.0,026.2,000.0,036.3,029.8,14.9,0000.0,0013.99,0005.81,0005.13
2023-09-27 22:18:00,SystemResetWarning,0828.6,5.00,000.00,028.0,026.6,000.0,036.3,029.9,14.8,0000.0,0014.51,0005.89,0005.15
2023-09-27 22:19:00,SystemResetWarning,0828.6,5.00,000.00,028.1,026.8,000.0,036.4,030.0,15.0,0000.0,0015.08,0005.94,0005.18
2023-09-27 22:20:00,SystemResetWarning,0828.6,4.98,000.00,028.1,026.1,000.0,036.4,029.9,15.1,0000.0,0015.51,0005.97,0005.20
2023-09-27 22:21:00,SystemResetWarning,0828.5,5.02,000.00,028.0,024.6,000.0,036.3,029.7,15.0,0000.0,0015.80,0006.03,0005.22
2023-09-27 22:22:00,SystemResetWarning,0828.5,5.01,000.00,028.0,024.5,000.0,036.3,029.6,15.4,0000.0,0015.54,0006.03,0005.23
2023-09-27 22:23:00,SystemResetWarning,0828.5,4.99,000.00,027.9,024.8,000.0,036.3,029.5,14.7,0000.0,0015.12,0006.03,0005.24
2023-09-27 22:24:00,SystemResetWarning,0828.5,5.00,000.00,027.9,025.3,000.0,036.3,029.5,14.8,0000.0,0014.37,0006.00,0005.25
2023-09-27 22:25:00,SystemResetWarning,0828.5,5.00,000.00,027.9,025.7,000.0,036.3,029.6,14.6,0000.0,0013.88,0006.00,0005.24
2023-09-27 22:26:00,SystemResetWarning,0828.5,5.01,000.00,027.9,026.1,000.0,036.3,029.7,14.5,0002.1,0013.66,0006.02,0005.24
2023-09-27 22:27:00,SystemResetWarning,0828.5,5.00,000.00,028.0,026.5,000.0,036.3,029.8,14.5,0003.5,0013.26,0006.03,0005.23
2023-09-27 22:28:00,SystemResetWarning,0828.5,4.98,000.00,028.1,026.8,000.0,036.4,030.0,14.7,0003.6,0013.18,0006.02,0005.23
2023-09-27 22:29:00,SystemResetWarning,0828.5,4.99,000.00,028.1,026.1,000.0,036.3,029.9,14.9,0003.4,0012.67,0005.97,0005.25
2023-09-27 22:30:00,SystemResetWarning,0828.5,5.00,000.00,028.0,024.6,000.0,036.3,029.7,15.2,0003.5,0012.10,0005.94,0005.24
2023-09-27 22:31:00,SystemResetWarning,0828.5,5.01,000.00,028.0,024.4,000.0,036.3,029.7,15.5,0003.4,0011.36,0005.90,0005.23
2023-09-27 22:32:00,SystemResetWarning,0828.5,5.01,000.00,027.9,024.8,000.0,036.3,029.6,15.2,0003.2,0011.37,0005.91,0005.22
2023-09-27 22:33:00,SystemResetWarning,0828.4,4.99,000.00,027.9,025.2,000.0,036.3,029.6,14.8,0003.5,0011.49,0005.91,0005.22
2023-09-27 22:34:00,SystemResetWarning,0828.4,4.99,000.00,027.9,025.6,000.0,036.3,029.6,14.7,0003.6,0011.38,0005.91,0005.21
2023-09-27 22:35:00,SystemResetWarning,0828.4,5.00,000.00,027.9,026.1,000.0,036.3,029.7,14.7,0003.3,0011.14,0005.90,0005.19
2023-09-27 22:36:00,SystemResetWarning,0828.5,5.01,000.00,028.0,026.4,000.0,036.3,029.8,14.7,0003.5,0012.55,0005.93,0005.19
2023-09-27 22:37:00,SystemResetWarning,0828.5,5.00,000.00,028.1,026.8,000.0,036.3,029.9,14.9,0003.4,0013.28,0005.91,0005.20
2023-09-27 22:38:00,SystemResetWarning,0828.5,4.98,000.00,028.1,026.2,000.0,036.3,029.9,14.4,0003.5,0013.11,0005.92,0005.21
2023-09-27 22:39:00,SystemResetWarning,0828.4,5.00,000.00,028.0,024.6,000.0,036.3,029.7,14.6,0001.5,0012.92,0005.92,0005.20
2023-09-27 22:40:00,SystemResetWarning,0828.4,5.02,000.00,028.0,024.4,000.0,036.2,029.6,15.0,0002.9,0013.17,0005.93,0005.19
2023-09-27 22:41:00,SystemResetWarning,0828.4,5.00,000.00,027.9,024.7,000.0,036.2,029.5,14.6,0000.1,0013.66,0005.95,0005.19
2023-09-27 22:42:00,SystemResetWarning,0828.4,5.00,000.00,027.9,025.1,000.0,036.3,029.5,14.6,0000.0,0015.14,0005.95,0005.18
2023-09-27 22:43:00,SystemResetWarning,0828.4,5.00,000.00,027.9,025.6,000.0,036.3,029.6,15.0,0000.0,0014.98,0005.91,0005.18
2023-09-27 22:44:00,SystemResetWarning,0828.5,5.00,000.00,027.9,026.0,000.0,036.3,029.7,14.6,0000.0,0015.60,0005.93,0005.17
2023-09-27 22:45:00,SystemResetWarning,0828.5,4.99,000.00,028.0,026.4,000.0,036.3,029.8,14.5,0000.0,0016.77,0005.94,0005.17
2023-09-27 22:46:00,SystemResetWarning,0828.5,5.00,000.00,028.0,026.7,000.0,036.3,029.9,14.8,0000.0,0017.20,0005.94,0005.18
2023-09-27 22:47:00,SystemResetWarning,0828.5,4.99,000.00,028.1,026.3,000.0,036.3,029.9,15.0,0000.0,0018.00,0005.92,0005.18
2023-09-27 22:48:00,SystemResetWarning,0828.4,5.00,000.00,028.0,024.7,000.0,036.3,029.7,15.1,0000.0,0018.58,0005.90,0005.18
2023-09-27 22:49:00,SystemResetWarning,0828.4,5.01,000.00,028.0,024.3,000.0,036.2,029.6,14.7,0000.0,0019.57,0005.88,0005.17
2023-09-27 22:50:00,SystemResetWarning,0828.4,5.01,000.00,027.9,024.7,000.0,036.2,029.5,14.9,0000.0,0020.25,0005.92,0005.17
2023-09-27 22:51:00,SystemResetWarning,0828.4,4.99,000.00,027.9,025.1,000.0,036.3,029.5,14.9,0000.0,0022.77,0005.98,0005.18
2023-09-27 22:52:00,SystemResetWarning,0828.4,4.99,000.00,027.9,025.5,000.0,036.3,029.6,15.4,0000.0,0023.67,0005.97,0005.18
2023-09-27 22:53:00,SystemResetWarning,0828.4,5.00,000.00,027.9,025.9,000.0,036.3,029.7,15.2,0000.0,0022.17,0005.97,0005.19
2023-09-27 22:54:00,SystemResetWarning,0828.4,5.01,000.00,027.9,026.3,000.0,036.3,029.8,15.1,0000.0,0021.74,0005.96,0005.20
2023-09-27 22:55:00,SystemResetWarning,0828.4,5.00,000.00,028.0,026.7,000.0,036.3,029.9,15.1,0000.0,0020.96,0005.93,0005.19
2023-09-27 22:56:00,SystemResetWarning,0828.4,4.99,000.00,028.1,026.3,000.0,036.3,029.9,15.4,0000.0,0019.51,0005.86,0005.17
2023-09-27 22:57:00,SystemResetWarning,0828.4,5.00,000.00,028.0,024.7,000.0,036.3,029.7,15.5,0000.0,0019.17,0005.87,0005.17
2023-09-27 22:58:00,SystemResetWarning,0828.4,5.02,000.00,027.9,024.3,000.0,036.2,029.6,15.8,0000.0,0017.47,0005.91,0005.18
2023-09-27 22:59:00,SystemResetWarning,0828.4,5.00,000.00,027.9,024.6,000.0,036.2,029.5,15.7,0000.0,0015.58,0005.94,0005.19
